Regional Weather Roundup
Issued by NWS

Home | Current Version | Previous Version | Graphics & Text | Print | Product List | Glossary On
Versions: 1 2 3 4 5 6 7 8 9 10 11 12 13 14 15 16 17 18 19 20 21 22 23 24 25 26 27 28 29 30 31 32 33 34 35 36 37 38 39 40 41 42 43 44 45 46 47 48 49 50
000
ASUS43 KMKX 261500
RWRWI

WISCONSIN REGIONAL WEATHER ROUNDUP
NATIONAL WEATHER SERVICE MILWAUKEE/SULLIVAN WI
1000 AM CDT THU APR 26 2018

NOTE: "FAIR" INDICATES FEW OR NO CLOUDS BELOW 12,000 FEET WITH NO
SIGNIFICANT WEATHER AND/OR OBSTRUCTIONS TO VISIBILITY.

WIZ001-002-006>008-014>016-023>028-261600-
NORTHWEST WISCONSIN

CITY           SKY/WX    TMP DP  RH WIND       PRES   REMARKS
SUPERIOR ARPT  FAIR      52  34  50 W10       29.80F
ASHLAND        FAIR      57  33  40 W13       29.79F
HAYWARD        FAIR      55  32  41 SW9       29.81F
SIREN          FAIR      55  31  40 W12       29.82F
CUMBERLAND     FAIR      50  34  53 SW9       29.84F
RICE LAKE      FAIR      53  33  46 SW9       29.86F
CHETEK         FAIR      55  33  43 W7        29.85F
LADYSMITH      FAIR      52  35  51 SW10      29.87F
EAU CLAIRE     NOT AVBL
MENOMONIE      FAIR      54  34  46 SW9       29.88F
NEW RICHMOND   FAIR      55  32  40 SW12      29.84F
OSCEOLA        FAIR      56  34  44 SW12      29.87F
$$

WIZ003>005-009-010-017-018-261600-
NORTH CENTRAL WISCONSIN

CITY           SKY/WX    TMP DP  RH WIND       PRES   REMARKS
MANITOWISH WTR FAIR      49  31  51 SW12      29.80F
ARBOR VITAE    FAIR      52  34  50 SW9G16    29.83F
WOODRUFF       FAIR      52  34  50 SW9G16    29.83F
RHINELANDER    FAIR      51  32  48 W14       29.85F
EAGLE RIVER    FAIR      48  28  46 W12       29.83F
LAND O LAKES   FAIR      49  28  43 W8        29.84F
PHILLIPS       FAIR      50  32  51 SW10      29.84F
TOMAHAWK       FAIR      49  30  47 SW6       29.86F
MEDFORD        FAIR      49  33  55 SW8       29.87F
MERRILL        FAIR      51  33  48 W8        29.88S
$$

WIZ029-030-035-036-043>047-261600-
CENTRAL WISCONSIN

CITY           SKY/WX    TMP DP  RH WIND       PRES   REMARKS
WAUSAU         FAIR      53  31  42 SW9       29.86F
MOSINEE        MOSUNNY   52  30  43 SW8       29.89F
MARSHFIELD     FAIR      53  33  46 W13       29.87F
STEVENS POINT  FAIR      49  30  47 SW5       29.90S
WAUPACA        FAIR      53  33  46 SW6       29.90F
WAUTOMA        NOT AVBL
WISC RAPIDS    FAIR      53  31  42 VRB5      29.90F
CAMP DOUGLAS   NOT AVBL
$$

WIZ011>013-019>022-031-037>040-048>050-261600-
NORTHEAST WISCONSIN

CITY           SKY/WX    TMP DP  RH WIND       PRES   REMARKS
ANTIGO         FAIR      49  32  51 W6        29.87S
SHAWANO        FAIR      50  32  50 SW7       29.89S
OCONTO         FAIR      52  35  54 SW5       29.88F
STURGEON BAY   NOT AVBL
GREEN BAY      FAIR      50  38  63 SW8       29.90S
MANITOWOC      NOT AVBL
APPLETON       MOSUNNY   50  34  53 SW10      29.89F
CLINTONVILLE   FAIR      50  32  50 W6        29.89F
OSHKOSH        FAIR      52  37  56 SW9       29.90F
$$

WIZ032>034-041-042-053>061-261600-
SOUTHWEST WISCONSIN

CITY           SKY/WX    TMP DP  RH WIND       PRES   REMARKS
LA CROSSE      FAIR      54  37  52 S6        29.91F
SPARTA         FAIR      51  33  50 W6        29.92S
VIROQUA        FAIR      52  36  53 W6        29.92S
BOSCOBEL       FAIR      53  36  52 VRB5      29.94S
PRAIRIE DU CHI FAIR      50  32  49 SW5       29.93F
PLATTEVILLE    FAIR      50  38  62 S7        29.94F
$$

WIZ056-057-062-063-064-067-068-261600-
SOUTH CENTRAL WISCONSIN

CITY           SKY/WX    TMP DP  RH WIND       PRES   REMARKS
REEDSBURG      FAIR      49  35  57 SW6       29.92F
BARABOO/DELLS  FAIR      50  33  50 W7        29.92S
LONE ROCK      NOT AVBL
MINERAL POINT  FAIR      50  37  62 SW5       29.93F
MADISON        CLOUDY    51  33  50 VRB5      29.92F
MIDDLETON      FAIR      53  33  47 SW6       29.93F
WATERTOWN      FAIR      50  36  57 SW7       29.93F
MONROE         FAIR      50  32  50 S12       29.94S
JANESVILLE     MOSUNNY   54  30  40 SW9       29.94F
$$

WIZ051-052-058>065-066-070>072-261600-
SOUTHEAST WISCONSIN

CITY           SKY/WX    TMP DP  RH WIND       PRES   REMARKS
MILWAUKEE      PTSUNNY   56  29  35 SW8       29.94F
WAUKESHA       SUNNY     54  32  43 SW8       29.94F
MILWAUKEE/TIMM SUNNY     54  28  37 W7        29.94F
RACINE         FAIR      53  31  42 SW7       29.96F
BURLINGTON     FAIR      54  31  41 SW3       29.94F
KENOSHA        FAIR      54  33  45 S6        29.95F
FOND DU LAC    FAIR      50  36  58 S10       29.91F
SHEBOYGAN      FAIR      55  36  48 W7        29.91F
WEST BEND      FAIR      52  32  46 W10G16    29.92F
JUNEAU         FAIR      48  35  62 SW7       29.94F
$$

LSZ147-162-261600-
LAKE SUPERIOR

STATION/POSITION TIME  TEMP    WIND        PRES    WAVE
                       AIR SEA DIR/SP/G            HT/PER
                 (UTC) (F)     (DEG/KT/KT) (MB)    (FT/S)
DEVILS ISLAND    1400   41     260/ 13/ 15 1009.2R
SAXON HARBOR     1430   55     210/  9/ 13 1008.1F
$$

LMZ867-665-643>646-261600-
LAKE MICHIGAN

STATION/POSITION TIME  TEMP    WIND        PRES    WAVE
                       AIR SEA DIR/SP/G            HT/PER
                 (UTC) (F)     (DEG/KT/KT) (MB)    (FT/S)
NORTHPORT PIER   1440   48                 1011.9F
KEWAUNEE LAKESHO 1430   41     160/  8/  9 1012.0F
SHEBOYGAN LAKESH 1400   44     190/  8/  9 1013.8F
PORT WASHINGTON  1430   43     170/  4/  7 1014.6F
MILWAUKEE LAKESH 1430   41     120/  7/  7   N/A
KENOSHA   LAKESH 1400   48                 1014.6
$$

TC  - TEMPERATURE IN CELSIUS
VSB - VISIBILITY IN STATUTE MILES
WCI - WIND CHILL INDEX
HX  - HEAT INDEX





USA.gov is the U.S. government's official web portal to all federal, state and local government web resources and services.